Location: Ariel
(45.9570°N, 122.5700°W)
Time: 08:12:35
(UTC-07:00)

Transit 4A - Pass Details

Date: 28 July 2019
Orbit: 863 x 981 km, 66.8° (Epoch: 22 August)

Event Time Altitude Azimuth Distance (km) Brightness Sun altitude
Exits shadow 03:52:41 - 276° (W) 3,714 10.7 -16.1°
Rises 03:52:48 0° 277° (W) 3,681 10.7 -16.1°
Reaches altitude 10° 03:56:31 10° 298° (WNW) 2,739 10.2 -15.7°
Maximum altitude 04:00:23 16° 335° (NNW) 2,311 10.3 -15.3°
Drops below altitude 10° 04:04:14 10° 13° (NNE) 2,733 11.3 -14.8°
Sets 04:07:58 0° 34° (NE) 3,669 12.9 -14.4°
